[[{"header":{"parameterUnit":"m.s-1","parameterCategory":2,"la1":30.2992,"la2":30.254,"lo1":-89.0895,"lo2":-89.0443,"dy":0.0025,"dx":0.0025,"nx":19,"ny":19,"refTime":"2026-04-07T09:00:00:Z","depth":"0","parameterNumber":2,"parameterNumberName":"U-component_of_CURRENTS"},"data":[0,0,0,-0.2096,-0.2098,-0.2165,-0.2165,-0.2201,-0.2201,0,0,0,0,0,0,0,0,0,0,0,-0.2059,-0.2059,-0.2096,-0.2098,-0.2165,-0.2165,-0.2201,-0.2201,0,0,0,0,0,0,0,0,0,0,0,-0.2058,-0.2059,-0.2059,-0.2098,-0.2165,-0.2165,-0.2201,-0.2161,0,0,0,0,0,0,0,0,0,0,-0.2102,-0.2071,-0.2059,-0.2059,-0.2099,-0.2165,-0.2165,-0.216,-0.2164,-0.216,0,-0.2167,0,-0.2194,-0.2203,-0.2204,0,0,0,-0.209,-0.2068,-0.2095,-0.2059,-0.21,-0.2164,-0.2132,-0.2162,-0.2167,-0.2165,-0.2168,-0.217,-0.2195,-0.2204,-0.2204,-0.233,-0.2331,0,0,-0.2087,-0.2062,-0.2092,-0.2098,-0.2112,-0.213,-0.2135,-0.2165,-0.2161,-0.2168,-0.2171,-0.2196,-0.2204,-0.2204,-0.2329,-0.233,0,0,0,-0.2081,-0.2059,-0.2087,-0.2096,-0.2117,-0.2132,-0.2137,-0.2159,-0.2171,-0.2172,-0.2196,-0.2204,-0.2204,-0.2327,-0.2329,-0.2399,0,0,0,-0.2079,-0.2058,-0.2085,-0.207,-0.2117,-0.2145,-0.213,-0.2168,-0.2174,-0.2196,-0.2204,-0.2205,-0.2326,-0.2328,-0.2394,-0.2436,0,0,0,-0.2056,-0.2055,-0.2064,-0.2068,-0.2104,-0.2146,-0.2159,-0.217,-0.2188,-0.2204,-0.2205,-0.2325,-0.2328,-0.239,-0.2429,-0.2465,0,0,0,-0.2028,-0.2065,-0.2062,-0.2123,-0.2104,-0.2212,-0.2159,-0.2213,-0.2233,-0.2204,-0.2326,-0.2329,-0.2389,-0.2424,-0.2461,-0.2441,-0.2458,0,0,-0.2069,-0.2068,-0.2113,-0.2115,-0.2226,-0.2202,-0.2318,-0.23,-0.2274,-0.2308,-0.2311,-0.2395,-0.2428,-0.2464,-0.2599,-0.2612,0,0,0,-0.2125,-0.215,-0.2187,-0.2245,-0.2311,-0.2371,-0.2373,-0.2383,-0.2406,-0.23,-0.2432,-0.2452,-0.2471,-0.2452,-0.2463,-0.2478,-0.2342,-0.2341,-0.2341,-0.2114,-0.2183,-0.2267,-0.2353,-0.242,-0.2489,-0.2538,-0.2552,-0.2502,-0.253,-0.2534,-0.2649,-0.2632,-0.2639,-0.2657,-0.2559,-0.2559,-0.2559,-0.256,-0.218,-0.2233,-0.2321,-0.2421,-0.25,-0.2583,-0.2681,-0.2665,-0.2723,-0.266,-0.2674,-0.256,-0.2655,-0.2669,-0.2565,-0.2564,-0.2563,-0.2563,-0.2562,-0.2167,-0.2205,-0.227,-0.2399,-0.2512,-0.2611,-0.2718,-0.2766,-0.2784,-0.2819,-0.2755,-0.2752,-0.2738,-0.2797,-0.2798,-0.2798,-0.2799,-0.2799,-0.2799,-0.2109,-0.219,-0.2238,-0.2375,-0.2437,-0.2556,-0.2721,-0.2786,-0.2846,-0.285,-0.2849,-0.2799,-0.2721,-0.2681,-0.2805,-0.2804,-0.2803,-0.2803,-0.2802,-0.2085,-0.2097,-0.2167,-0.2222,-0.2379,-0.2452,-0.2651,-0.2806,-0.2885,-0.2911,-0.2914,-0.2864,-0.2836,-0.2826,-0.279,-0.2935,-0.2935,-0.2935,-0.2935,-0.2017,-0.2049,-0.2089,-0.2153,-0.2269,-0.24,-0.2524,-0.2713,-0.2884,-0.2931,-0.298,-0.2925,-0.2919,-0.2892,-0.2881,-0.2845,-0.3001,-0.3001,-0.3001,-0.1965,-0.1993,-0.1981,-0.2071,-0.2205,-0.2312,-0.2392,-0.2646,-0.2907,-0.3006,-0.3014,-0.3011,-0.2931,-0.2919,-0.287,-0.2854,-0.279,0,0]},{"header":{"parameterUnit":"m.s-1","parameterCategory":2,"la1":30.2992,"la2":30.254,"lo1":-89.0895,"lo2":-89.0443,"dy":0.0025,"dx":0.0025,"nx":19,"ny":19,"refTime":"2026-04-07T09:00:00:Z","depth":"0","parameterNumber":3,"parameterNumberName":"V-component_of_CURRENTS"},"data":[0,0,0,-0.0225,-0.0223,-0.0073,-0.0072,0.0139,0.0141,0,0,0,0,0,0,0,0,0,0,0,-0.0283,-0.0282,-0.0225,-0.0222,-0.0073,-0.0072,0.0139,0.0141,0,0,0,0,0,0,0,0,0,0,0,-0.0283,-0.0282,-0.0282,-0.0222,-0.0073,-0.0072,0.0138,0.0025,0,0,0,0,0,0,0,0,0,0,-0.0121,-0.019,-0.0282,-0.0282,-0.0221,-0.0073,-0.0072,0.002,0.0032,0.007,0,0.0079,0,0.011,0.0153,0.0154,0,0,0,-0.0203,-0.0201,-0.0156,-0.0281,-0.022,-0.0073,-0.0135,0.0027,0.0041,0.0087,0.0082,0.009,0.0113,0.0155,0.0156,0.0297,0.0297,0,0,-0.0212,-0.0251,-0.0166,-0.0148,-0.0199,-0.014,-0.013,0.0035,0.004,0.0083,0.0095,0.0117,0.0156,0.0157,0.0296,0.0297,0,0,0,-0.0248,-0.0258,-0.0217,-0.0157,-0.0134,-0.0136,-0.0125,0.0033,0.0047,0.0098,0.0119,0.0157,0.0159,0.0296,0.0296,0.0184,0,0,0,-0.0252,-0.028,-0.0222,-0.0243,-0.0138,-0.0053,-0.0132,0.0035,0.0055,0.0118,0.0157,0.0161,0.0296,0.0296,0.0187,0.0117,0,0,0,-0.0286,-0.0283,-0.0271,-0.0246,-0.0188,-0.0055,-0.003,0.004,0.0068,0.0154,0.0162,0.0296,0.0296,0.0189,0.0122,0.0144,0,0,0,-0.0323,-0.0339,-0.0273,-0.0279,-0.019,-0.0118,-0.0031,0.0038,0.0102,0.0158,0.0296,0.0296,0.019,0.0126,0.0147,0.0178,0.017,0,0,-0.037,-0.0346,-0.0349,-0.0286,-0.0264,-0.0136,-0.0088,0.0032,0.0124,0.0246,0.025,0.0186,0.0123,0.0145,0.0194,0.0185,0,0,0,-0.0381,-0.0392,-0.037,-0.0339,-0.0254,-0.0179,-0.0046,0.0025,0.0136,0.0162,0.0223,0.0187,0.0205,0.0231,0.0224,0.0536,0.0298,0.0298,0.0298,-0.0495,-0.0451,-0.0467,-0.0403,-0.0346,-0.0198,-0.0127,0.0,0.0097,0.0131,0.0124,0.0097,0.0123,0.0119,0.044,0.0169,0.0168,0.0168,0.0168,-0.06,-0.062,-0.0555,-0.0559,-0.0452,-0.0389,-0.0202,-0.0118,0.0008,0.0071,0.0095,0.0144,0.0104,0.0451,0.0161,0.0162,0.0163,0.0164,0.0164,-0.0696,-0.0705,-0.0696,-0.0698,-0.0652,-0.0513,-0.045,-0.0289,-0.0114,-0.0091,0.0019,0.0021,0.0306,-0.0053,-0.0053,-0.0053,-0.0053,-0.0053,-0.0053,-0.0804,-0.0796,-0.0855,-0.0839,-0.0844,-0.0789,-0.0588,-0.0484,-0.0258,-0.0102,-0.01,0.0348,0.0031,0.0016,-0.0057,-0.0056,-0.0056,-0.0056,-0.0055,-0.0934,-0.0925,-0.1028,-0.1059,-0.1069,-0.1068,-0.0859,-0.0582,-0.0411,-0.0294,0.031,-0.0068,-0.0017,-0.0009,-0.0022,-0.0102,-0.0102,-0.0102,-0.0102,-0.1023,-0.1027,-0.1176,-0.1259,-0.1292,-0.1201,-0.1075,-0.0704,-0.0046,0.0335,0.047,0.0565,0.0553,0.0644,0.0638,0.0642,0.0734,0.0735,0.0737,-0.1114,-0.1152,-0.1282,-0.1355,-0.1397,-0.1344,-0.121,-0.0741,0.0291,0.0805,0.0902,0.0867,0.1042,0.0997,0.1168,0.1133,0.1149,0,0]}],[{"header":{"parameterUnit":"m.s-1","parameterCategory":2,"la1":30.2992,"la2":30.254,"lo1":-89.0895,"lo2":-89.0443,"dy":0.0025,"dx":0.0025,"nx":19,"ny":19,"refTime":"2026-04-07T09:00:00:Z","depth":"2","parameterNumber":2,"parameterNumberName":"U-component_of_CURRENTS"},"data":[0,0,0,-0.2004,-0.2006,-0.2073,-0.2073,-0.2106,-0.2107,0,0,0,0,0,0,0,0,0,0,0,-0.1967,-0.1967,-0.2004,-0.2006,-0.2073,-0.2073,-0.2106,-0.2107,0,0,0,0,0,0,0,0,0,0,0,-0.1967,-0.1967,-0.1968,-0.2006,-0.2073,-0.2073,-0.2106,-0.2067,0,0,0,0,0,0,0,0,0,0,-0.2007,-0.1979,-0.1967,-0.1968,-0.2006,-0.2073,-0.2073,-0.2065,-0.2069,-0.2064,0,-0.2072,0,-0.2099,-0.2108,-0.2109,0,0,0,-0.1998,-0.1976,-0.2002,-0.1968,-0.2007,-0.2073,-0.204,-0.2068,-0.2072,-0.2069,-0.2073,-0.2075,-0.2099,-0.2109,-0.2109,-0.2231,-0.2232,0,0,-0.1994,-0.1971,-0.2,-0.2005,-0.2021,-0.2038,-0.2042,-0.2071,-0.2067,-0.2073,-0.2076,-0.21,-0.2109,-0.2109,-0.2229,-0.2231,0,0,0,-0.1989,-0.1968,-0.1995,-0.2003,-0.2024,-0.204,-0.2045,-0.2066,-0.2077,-0.2077,-0.21,-0.2109,-0.2109,-0.2228,-0.223,-0.2301,0,0,0,-0.1986,-0.1966,-0.1993,-0.1979,-0.2024,-0.2053,-0.2039,-0.2075,-0.208,-0.21,-0.2109,-0.211,-0.2227,-0.2229,-0.2296,-0.2337,0,0,0,-0.1965,-0.1964,-0.1973,-0.1978,-0.2013,-0.2054,-0.2066,-0.2077,-0.2094,-0.2109,-0.211,-0.2226,-0.2229,-0.2292,-0.233,-0.2366,0,0,0,-0.1938,-0.1974,-0.1972,-0.2031,-0.2013,-0.2118,-0.2066,-0.2119,-0.2138,-0.2109,-0.2227,-0.223,-0.229,-0.2326,-0.2362,-0.2324,-0.2339,0,0,-0.1978,-0.1977,-0.2021,-0.2023,-0.213,-0.2108,-0.222,-0.2203,-0.2178,-0.2209,-0.2212,-0.2297,-0.233,-0.2365,-0.248,-0.249,0,0,0,-0.2033,-0.2057,-0.2092,-0.2149,-0.2213,-0.2272,-0.2274,-0.2285,-0.2308,-0.2204,-0.2333,-0.2352,-0.2371,-0.2341,-0.2351,-0.2243,-0.2242,-0.2242,-0.2242,-0.2023,-0.209,-0.2171,-0.2253,-0.2318,-0.2387,-0.2435,-0.2449,-0.2401,-0.243,-0.2435,-0.2549,-0.252,-0.2526,-0.2459,-0.2459,-0.2459,-0.246,-0.246,-0.2087,-0.2138,-0.2223,-0.232,-0.2397,-0.2479,-0.2575,-0.2562,-0.2621,-0.2559,-0.2573,-0.245,-0.254,-0.2466,-0.2465,-0.2464,-0.2463,-0.2463,-0.2463,-0.2075,-0.2111,-0.2175,-0.23,-0.2411,-0.2508,-0.2614,-0.2664,-0.2683,-0.2718,-0.2642,-0.264,-0.2567,-0.2698,-0.2699,-0.2699,-0.2699,-0.27,-0.27,-0.202,-0.2098,-0.2146,-0.2279,-0.2339,-0.2457,-0.2621,-0.2685,-0.2737,-0.2736,-0.2735,-0.2629,-0.2621,-0.2582,-0.2706,-0.2705,-0.2704,-0.2703,-0.2703,-0.1996,-0.2009,-0.2077,-0.2131,-0.2283,-0.233,-0.2544,-0.269,-0.2772,-0.2791,-0.2745,-0.2742,-0.2711,-0.2702,-0.2666,-0.2804,-0.2804,-0.2804,-0.2804,-0.1931,-0.1962,-0.2001,-0.2063,-0.2174,-0.2271,-0.2318,-0.2387,-0.254,-0.2532,-0.2543,-0.2458,-0.2462,-0.2411,-0.2408,-0.2363,-0.2422,-0.2421,-0.242,-0.1879,-0.1907,-0.1895,-0.1982,-0.2109,-0.2159,-0.208,-0.1984,-0.2115,-0.2394,-0.2366,-0.28,-0.2703,-0.2698,-0.2638,-0.2627,-0.2561,0,0]},{"header":{"parameterUnit":"m.s-1","parameterCategory":2,"la1":30.2992,"la2":30.254,"lo1":-89.0895,"lo2":-89.0443,"dy":0.0025,"dx":0.0025,"nx":19,"ny":19,"refTime":"2026-04-07T09:00:00:Z","depth":"2","parameterNumber":3,"parameterNumberName":"V-component_of_CURRENTS"},"data":[0,0,0,-0.0209,-0.0206,-0.0059,-0.0058,0.0147,0.0149,0,0,0,0,0,0,0,0,0,0,0,-0.0265,-0.0265,-0.0209,-0.0206,-0.0059,-0.0058,0.0147,0.0149,0,0,0,0,0,0,0,0,0,0,0,-0.0265,-0.0265,-0.0264,-0.0206,-0.006,-0.0058,0.0147,0.0036,0,0,0,0,0,0,0,0,0,0,-0.0107,-0.0175,-0.0265,-0.0264,-0.0205,-0.006,-0.0058,0.0031,0.0043,0.008,0,0.0088,0,0.0119,0.0162,0.0162,0,0,0,-0.0187,-0.0185,-0.0142,-0.0264,-0.0204,-0.006,-0.012,0.0038,0.0051,0.0096,0.0091,0.0099,0.0122,0.0163,0.0164,0.0299,0.0299,0,0,-0.0195,-0.0235,-0.0152,-0.0134,-0.0184,-0.0125,-0.0116,0.0046,0.005,0.0092,0.0104,0.0126,0.0164,0.0165,0.0299,0.0299,0,0,0,-0.0231,-0.0241,-0.0201,-0.0142,-0.012,-0.0121,-0.0111,0.0043,0.0057,0.0106,0.0128,0.0165,0.0167,0.0299,0.0299,0.0187,0,0,0,-0.0235,-0.0263,-0.0205,-0.0226,-0.0124,-0.004,-0.0117,0.0046,0.0065,0.0127,0.0165,0.0169,0.0299,0.0299,0.019,0.0121,0,0,0,-0.0269,-0.0266,-0.0254,-0.0229,-0.0173,-0.0042,-0.0018,0.0051,0.0078,0.0162,0.017,0.0299,0.0299,0.0192,0.0126,0.0148,0,0,0,-0.0305,-0.0322,-0.0256,-0.0263,-0.0174,-0.0106,-0.0019,0.0047,0.011,0.0166,0.0299,0.0299,0.0193,0.013,0.015,0.0176,0.0167,0,0,-0.0353,-0.0329,-0.0333,-0.027,-0.0251,-0.0123,-0.0078,0.004,0.0131,0.025,0.0254,0.0189,0.0127,0.0149,0.0187,0.0178,0,0,0,-0.0365,-0.0377,-0.0356,-0.0326,-0.0243,-0.017,-0.0039,0.0031,0.014,0.0168,0.0225,0.019,0.0207,0.0229,0.0221,0.03,0.03,0.03,0.03,-0.0479,-0.0437,-0.0454,-0.0392,-0.0337,-0.0192,-0.0122,0.0003,0.0099,0.0132,0.0125,0.0097,0.0119,0.0114,0.0169,0.0169,0.0168,0.0168,0.0168,-0.0586,-0.0607,-0.0543,-0.0549,-0.0444,-0.0383,-0.0199,-0.0115,0.0008,0.0071,0.0095,0.0141,0.0099,0.016,0.0161,0.0162,0.0163,0.0164,0.0164,-0.0681,-0.0691,-0.0683,-0.0687,-0.0643,-0.0507,-0.0444,-0.0286,-0.0112,-0.009,0.0015,0.0018,0.0027,-0.0051,-0.0052,-0.0052,-0.0052,-0.0052,-0.0052,-0.0789,-0.0782,-0.0841,-0.0827,-0.0832,-0.0779,-0.0581,-0.0479,-0.0258,-0.0105,-0.0103,0.0025,0.0032,0.0018,-0.0056,-0.0055,-0.0055,-0.0054,-0.0054,-0.0919,-0.091,-0.1012,-0.1044,-0.1055,-0.1049,-0.0849,-0.0579,-0.0411,-0.0298,-0.0076,-0.0074,-0.0025,-0.0016,-0.0028,-0.011,-0.011,-0.011,-0.011,-0.1007,-0.1011,-0.1159,-0.1241,-0.1274,-0.1179,-0.1058,-0.0731,-0.0365,-0.0161,-0.0159,-0.0125,-0.0121,-0.0074,-0.0064,-0.0075,-0.017,-0.017,-0.0171,-0.1098,-0.1135,-0.1264,-0.1336,-0.1378,-0.1315,-0.1187,-0.0807,-0.0304,-0.0177,-0.0206,-0.0107,-0.0049,-0.0046,0.0039,0.0049,0.0036,0,0]}],[{"header":{"parameterUnit":"m.s-1","parameterCategory":2,"la1":30.2992,"la2":30.254,"lo1":-89.0895,"lo2":-89.0443,"dy":0.0025,"dx":0.0025,"nx":19,"ny":19,"refTime":"2026-04-07T09:00:00:Z","depth":"4","parameterNumber":2,"parameterNumberName":"U-component_of_CURRENTS"},"data":[0,0,0,-0.1305,-0.1308,-0.1436,-0.1436,-0.1514,-0.1514,0,0,0,0,0,0,0,0,0,0,0,-0.1261,-0.1262,-0.1305,-0.1308,-0.1435,-0.1436,-0.1514,-0.1514,0,0,0,0,0,0,0,0,0,0,0,-0.1261,-0.1262,-0.1263,-0.1309,-0.1435,-0.1436,-0.1514,-0.1439,0,0,0,0,0,0,0,0,0,0,-0.1326,-0.1299,-0.1262,-0.1263,-0.131,-0.1435,-0.1436,-0.1436,-0.1444,-0.1432,0,-0.1457,0,-0.1485,-0.1518,-0.1518,0,0,0,-0.131,-0.1293,-0.1326,-0.1263,-0.1311,-0.1435,-0.1378,-0.1441,-0.1449,-0.1441,-0.1458,-0.1462,-0.1487,-0.1518,-0.1518,-0.1649,-0.165,0,0,-0.1303,-0.1284,-0.132,-0.1331,-0.1349,-0.1374,-0.1382,-0.1447,-0.1456,-0.1458,-0.1464,-0.1488,-0.1518,-0.1518,-0.1648,-0.1649,0,0,0,-0.1281,-0.1279,-0.1312,-0.1327,-0.1356,-0.1378,-0.1387,-0.1454,-0.1465,-0.1465,-0.1489,-0.1518,-0.1519,-0.1646,-0.1648,-0.1721,0,0,0,-0.1277,-0.1267,-0.1309,-0.1299,-0.1355,-0.1419,-0.1392,-0.146,-0.1469,-0.1488,-0.1518,-0.1519,-0.1645,-0.1647,-0.1717,-0.1751,0,0,0,-0.1255,-0.1265,-0.1281,-0.1298,-0.1353,-0.1419,-0.1434,-0.1463,-0.1482,-0.1518,-0.152,-0.1644,-0.1647,-0.1713,-0.1744,-0.1782,0,0,0,-0.1229,-0.1261,-0.1281,-0.1335,-0.1352,-0.1457,-0.1435,-0.1507,-0.1544,-0.1519,-0.1645,-0.1648,-0.1711,-0.174,-0.1778,-0.1523,0,0,0,-0.1253,-0.1264,-0.1299,-0.1319,-0.1414,-0.1439,-0.1554,-0.1582,-0.1578,-0.1615,-0.1619,-0.1718,-0.1744,-0.1781,-0.1677,0,0,0,0,-0.1296,-0.1319,-0.1353,-0.1416,-0.1489,-0.1577,-0.1619,-0.1651,-0.1713,-0.1612,-0.175,-0.1765,-0.1785,-0.1627,-0.166,-0.166,-0.166,-0.1659,-0.1659,-0.1277,-0.1336,-0.1406,-0.149,-0.1568,-0.1678,-0.1753,-0.1806,-0.1783,-0.1834,-0.1848,-0.196,-0.1799,-0.1873,-0.1873,-0.1873,-0.1874,-0.1874,-0.1874,-0.1301,-0.1335,-0.1441,-0.1531,-0.1642,-0.1748,-0.1884,-0.1907,-0.2003,-0.1962,-0.1978,-0.1745,-0.1882,-0.1881,-0.1879,-0.1879,-0.1878,-0.1877,-0.1877,-0.126,-0.1286,-0.1368,-0.1504,-0.1649,-0.1788,-0.191,-0.201,-0.2066,-0.2111,-0.1917,-0.2014,-0.1979,-0.2108,-0.2108,-0.2108,-0.2109,-0.2109,-0.2109,-0.1167,-0.1253,-0.1319,-0.1475,-0.1565,-0.1715,-0.1926,-0.199,-0.2079,-0.1986,-0.2127,-0.2038,-0.2031,-0.1994,-0.2115,-0.2114,-0.2113,-0.2112,-0.2112,-0.1087,-0.1132,-0.1211,-0.1295,-0.1489,-0.1582,-0.1812,-0.1892,-0.194,-0.191,-0.191,-0.1919,-0.1864,-0.1861,-0.1815,-0.1888,-0.1885,-0.1882,0,-0.1001,-0.1039,-0.1113,-0.1202,-0.1309,-0.1493,-0.1533,-0.1648,-0.1738,-0.1676,-0.1921,-0.1918,-0.1923,-0.1856,-0.1849,-0.1792,0,0,0,-0.0932,-0.097,-0.098,-0.1097,-0.1213,-0.135,-0.1533,-0.1517,-0.1727,-0.1711,-0.1811,-0.183,-0.1993,-0.2131,-0.2068,-0.2058,-0.1996,0,0]},{"header":{"parameterUnit":"m.s-1","parameterCategory":2,"la1":30.2992,"la2":30.254,"lo1":-89.0895,"lo2":-89.0443,"dy":0.0025,"dx":0.0025,"nx":19,"ny":19,"refTime":"2026-04-07T09:00:00:Z","depth":"4","parameterNumber":3,"parameterNumberName":"V-component_of_CURRENTS"},"data":[0,0,0,-0.0096,-0.0094,0.0002,0.0003,0.0145,0.0146,0,0,0,0,0,0,0,0,0,0,0,-0.0133,-0.0133,-0.0096,-0.0094,0.0002,0.0003,0.0144,0.0146,0,0,0,0,0,0,0,0,0,0,0,-0.0133,-0.0133,-0.0133,-0.0094,0.0002,0.0003,0.0144,0.0071,0,0,0,0,0,0,0,0,0,0,-0.0024,-0.0071,-0.0133,-0.0133,-0.0094,0.0002,0.0003,0.0067,0.0075,0.0101,0,0.0103,0,0.0124,0.0154,0.0155,0,0,0,-0.0079,-0.0078,-0.005,-0.0133,-0.0093,0.0002,-0.0037,0.0072,0.0081,0.0112,0.0106,0.0111,0.0126,0.0155,0.0156,0.0233,0.0233,0,0,-0.0084,-0.0112,-0.0057,-0.0045,-0.0084,-0.004,-0.0034,0.0077,0.0079,0.0106,0.0115,0.0128,0.0156,0.0157,0.0233,0.0233,0,0,0,-0.011,-0.0116,-0.009,-0.0051,-0.0037,-0.0038,-0.0031,0.0074,0.0083,0.0116,0.013,0.0157,0.0158,0.0233,0.0233,0.0138,0,0,0,-0.0112,-0.0132,-0.0093,-0.0108,-0.004,0.0016,-0.0037,0.0075,0.0088,0.0129,0.0157,0.016,0.0234,0.0233,0.014,0.0083,0,0,0,-0.0135,-0.0134,-0.0128,-0.011,-0.0075,0.0014,0.0031,0.0079,0.0096,0.0155,0.016,0.0234,0.0233,0.0143,0.0088,0.0104,0,0,0,-0.0159,-0.018,-0.0129,-0.0149,-0.0076,-0.0047,0.003,0.0066,0.0107,0.0157,0.0234,0.0233,0.0144,0.0092,0.0106,0.0037,0,0,0,-0.0204,-0.0187,-0.02,-0.0152,-0.0162,-0.0058,-0.0048,0.0041,0.0116,0.0202,0.0204,0.0139,0.0089,0.0104,0.0024,0,0,0,0,-0.0226,-0.0242,-0.0234,-0.0226,-0.0177,-0.0131,-0.0034,0.0021,0.0104,0.0139,0.0162,0.0133,0.0146,0.0114,0.0232,0.0232,0.0232,0.0232,0.0232,-0.0316,-0.0298,-0.033,-0.0301,-0.0273,-0.0175,-0.0126,-0.0027,0.0052,0.0078,0.0071,0.0037,-0.0001,0.0101,0.0101,0.01,0.01,0.01,0.0099,-0.041,-0.0433,-0.0409,-0.0438,-0.0373,-0.0345,-0.0209,-0.0139,-0.0043,0.0015,0.0033,0.0034,0.0091,0.0092,0.0094,0.0095,0.0095,0.0096,0.0096,-0.0476,-0.0487,-0.0506,-0.0543,-0.0535,-0.0448,-0.0411,-0.0288,-0.0144,-0.0129,-0.0098,-0.0009,-0.0017,-0.0095,-0.0095,-0.0095,-0.0096,-0.0096,-0.0096,-0.0532,-0.0552,-0.0618,-0.0647,-0.0672,-0.0653,-0.052,-0.0443,-0.0288,-0.0217,-0.0142,-0.0028,-0.0021,-0.0026,-0.0099,-0.0098,-0.0098,-0.0098,-0.0098,-0.0609,-0.0617,-0.072,-0.077,-0.0829,-0.0805,-0.0699,-0.0524,-0.0439,-0.0348,-0.0234,-0.0227,-0.0189,-0.0178,-0.0186,-0.031,-0.0311,-0.0312,0,-0.0653,-0.0667,-0.0806,-0.0899,-0.095,-0.089,-0.0796,-0.0673,-0.0477,-0.0478,-0.0426,-0.0305,-0.0296,-0.0259,-0.0251,-0.0266,0,0,0,-0.0702,-0.0738,-0.0846,-0.0942,-0.1,-0.0871,-0.0765,-0.07,-0.0523,-0.0447,-0.0341,-0.0334,-0.0251,-0.0108,-0.003,-0.0022,-0.0025,0,0]}]]